Total_Precipitation_Accumulation
0.05 0.06 0.07 0.07 0.07 0.07 0.11 0.07 0.10 0.06 0.06 0.08 0.06 0.07 0.06 0.06 0.06 0.05 0.05 0.07 0.07 0.08 0.13 0.14 0.15 0.14 0.13 0.15 0.20 0.21 0.18 0.18 0.16 0.16 0.18 0.17 0.20 0.23 0.23 0.22 0.37 0.33 0.21 0.07 0.02 0.01 0.01 0.00 0.02 0.03 0.06 0.09 0.15 0.16 0.15 0.05 0.04 0.05 0.02 0.05 0.06 0.09 0.05
0.06 0.06 0.07 0.07 0.08 0.07 0.07 0.12 0.09 0.06 0.07 0.06 0.05 0.06 0.07 0.09 0.11 0.07 0.07 0.06 0.06 0.05 0.07 0.11 0.13 0.11 0.10 0.11 0.19 0.22 0.22 0.22 0.19 0.23 0.22 0.18 0.19 0.20 0.20 0.18 0.22 0.27 0.23 0.15 0.05 0.02 0.01 0.01 0.01 0.03 0.04 0.07 0.08 0.13 0.17 0.15 0.10 0.07 0.07 0.06 0.09 0.11 0.06
0.09 0.09 0.09 0.10 0.08 0.08 0.10 0.11 0.12 0.09 0.12 0.13 0.11 0.09 0.06 0.06 0.06 0.05 0.05 0.05 0.04 0.04 0.05 0.08 0.11 0.12 0.11 0.12 0.20 0.22 0.23 0.23 0.25 0.23 0.21 0.22 0.16 0.14 0.12 0.14 0.19 0.23 0.21 0.16 0.11 0.05 0.03 0.02 0.02 0.02 0.04 0.05 0.09 0.11 0.09 0.15 0.18 0.15 0.13 0.10 0.10 0.09 0.06
0.07 0.09 0.08 0.09 0.09 0.14 0.08 0.09 0.07 0.10 0.13 0.13 0.11 0.13 0.14 0.10 0.08 0.07 0.07 0.08 0.06 0.05 0.05 0.06 0.09 0.10 0.11 0.16 0.18 0.19 0.19 0.22 0.24 0.23 0.23 0.21 0.18 0.17 0.12 0.09 0.09 0.15 0.18 0.16 0.15 0.09 0.06 0.03 0.03 0.03 0.04 0.05 0.06 0.10 0.14 0.15 0.22 0.23 0.21 0.16 0.17 0.08 0.08
0.08 0.09 0.10 0.09 0.07 0.06 0.05 0.06 0.05 0.06 0.06 0.06 0.07 0.09 0.10 0.10 0.11 0.11 0.11 0.09 0.10 0.11 0.10 0.09 0.07 0.07 0.08 0.09 0.15 0.18 0.21 0.22 0.23 0.25 0.25 0.23 0.17 0.17 0.14 0.12 0.12 0.14 0.16 0.24 0.18 0.13 0.08 0.04 0.04 0.04 0.05 0.05 0.08 0.10 0.15 0.18 0.21 0.23 0.27 0.25 0.21 0.15 0.10
0.11 0.11 0.09 0.08 0.08 0.07 0.09 0.07 0.06 0.06 0.09 0.05 0.04 0.05 0.06 0.07 0.07 0.08 0.09 0.11 0.12 0.10 0.11 0.11 0.10 0.09 0.11 0.11 0.12 0.13 0.13 0.18 0.25 0.27 0.24 0.22 0.24 0.25 0.20 0.18 0.16 0.15 0.19 0.20 0.19 0.16 0.11 0.07 0.06 0.06 0.07 0.06 0.08 0.09 0.13 0.21 0.23 0.22 0.27 0.29 0.29 0.27 0.20
0.12 0.12 0.11 0.10 0.10 0.09 0.09 0.08 0.07 0.06 0.06 0.05 0.06 0.07 0.07 0.06 0.06 0.06 0.06 0.07 0.08 0.08 0.09 0.10 0.11 0.11 0.10 0.11 0.11 0.12 0.12 0.12 0.13 0.21 0.24 0.25 0.26 0.24 0.27 0.33 0.33 0.28 0.21 0.19 0.20 0.23 0.12 0.10 0.13 0.07 0.10 0.06 0.06 0.08 0.08 0.12 0.20 0.26 0.24 0.26 0.27 0.27 0.24
0.14 0.13 0.13 0.13 0.13 0.11 0.10 0.10 0.09 0.08 0.07 0.06 0.06 0.06 0.08 0.07 0.09 0.10 0.09 0.07 0.06 0.06 0.07 0.09 0.10 0.10 0.10 0.09 0.09 0.09 0.08 0.09 0.12 0.16 0.20 0.19 0.21 0.25 0.33 0.35 0.34 0.32 0.30 0.30 0.30 0.24 0.20 0.16 0.10 0.08 0.06 0.09 0.12 0.15 0.14 0.11 0.13 0.19 0.20 0.25 0.28 0.26 0.25
0.18 0.17 0.18 0.14 0.14 0.15 0.12 0.13 0.11 0.09 0.09 0.09 0.08 0.09 0.11 0.09 0.10 0.09 0.08 0.07 0.07 0.08 0.07 0.07 0.08 0.08 0.12 0.08 0.07 0.07 0.08 0.08 0.09 0.13 0.15 0.16 0.20 0.26 0.31 0.33 0.33 0.35 0.37 0.36 0.32 0.30 0.21 0.18 0.13 0.11 0.10 0.10 0.12 0.15 0.14 0.11 0.11 0.15 0.17 0.18 0.20 0.23 0.27
0.19 0.21 0.29 0.18 0.16 0.15 0.18 0.15 0.13 0.11 0.11 0.13 0.15 0.15 0.13 0.13 0.11 0.11 0.10 0.10 0.08 0.07 0.06 0.06 0.07 0.07 0.05 0.06 0.07 0.08 0.08 0.08 0.08 0.09 0.13 0.16 0.18 0.21 0.28 0.32 0.36 0.35 0.31 0.33 0.39 0.32 0.26 0.26 0.19 0.12 0.09 0.09 0.08 0.06 0.06 0.07 0.07 0.08 0.08 0.09 0.17 0.19 0.24
0.27 0.26 0.25 0.24 0.24 0.26 0.23 0.21 0.16 0.13 0.16 0.20 0.26 0.25 0.25 0.21 0.17 0.14 0.13 0.12 0.10 0.08 0.07 0.06 0.06 0.06 0.05 0.05 0.06 0.07 0.09 0.09 0.08 0.09 0.10 0.09 0.11 0.18 0.24 0.30 0.33 0.32 0.29 0.31 0.30 0.31 0.26 0.21 0.17 0.11 0.10 0.10 0.08 0.06 0.06 0.08 0.08 0.08 0.09 0.14 0.18 0.23 0.22
0.34 0.27 0.25 0.25 0.25 0.26 0.24 0.24 0.18 0.19 0.22 0.27 0.32 0.38 0.36 0.33 0.26 0.19 0.16 0.14 0.13 0.10 0.09 0.08 0.07 0.07 0.06 0.06 0.06 0.06 0.06 0.07 0.09 0.10 0.10 0.10 0.10 0.13 0.15 0.20 0.28 0.31 0.31 0.26 0.31 0.32 0.27 0.28 0.19 0.10 0.09 0.07 0.10 0.10 0.09 0.10 0.11 0.14 0.16 0.17 0.17 0.16 0.17
0.31 0.30 0.30 0.29 0.33 0.27 0.25 0.24 0.20 0.23 0.29 0.30 0.38 0.43 0.47 0.47 0.37 0.27 0.19 0.15 0.13 0.12 0.11 0.10 0.10 0.10 0.09 0.07 0.07 0.08 0.08 0.08 0.08 0.08 0.09 0.10 0.11 0.12 0.15 0.19 0.18 0.18 0.27 0.32 0.31 0.32 0.28 0.20 0.20 0.24 0.14 0.07 0.08 0.12 0.15 0.13 0.16 0.19 0.20 0.19 0.18 0.15 0.13
0.37 0.35 0.39 0.38 0.38 0.34 0.33 0.29 0.27 0.29 0.37 0.42 0.49 0.55 0.62 0.48 0.40 0.31 0.23 0.18 0.16 0.14 0.12 0.12 0.12 0.12 0.11 0.09 0.09 0.11 0.11 0.10 0.09 0.09 0.10 0.11 0.12 0.13 0.12 0.13 0.14 0.17 0.18 0.20 0.26 0.30 0.28 0.20 0.30 0.22 0.21 0.36 0.24 0.22 0.25 0.23 0.21 0.20 0.20 0.23 0.22 0.17 0.17
0.40 0.41 0.43 0.43 0.50 0.45 0.43 0.35 0.33 0.40 0.48 0.49 0.53 0.56 0.88 0.63 0.56 0.46 0.35 0.26 0.21 0.19 0.17 0.14 0.14 0.13 0.12 0.10 0.11 0.12 0.11 0.12 0.12 0.11 0.12 0.11 0.11 0.10 0.09 0.10 0.10 0.11 0.13 0.16 0.18 0.17 0.16 0.13 0.13 0.14 0.15 0.17 0.24 0.37 0.38 0.32 0.27 0.23 0.24 0.26 0.27 0.28 0.27
0.33 0.33 0.33 0.31 0.34 0.38 0.37 0.28 0.31 0.42 0.50 0.54 0.65 0.78 0.90 0.84 0.57 0.44 0.40 0.33 0.30 0.26 0.23 0.20 0.19 0.19 0.16 0.14 0.12 0.11 0.11 0.13 0.14 0.15 0.15 0.13 0.10 0.09 0.07 0.07 0.06 0.07 0.08 0.06 0.08 0.11 0.14 0.14 0.12 0.16 0.24 0.28 0.31 0.29 0.29 0.33 0.36 0.37 0.42 0.45 0.45 0.38 0.27
0.21 0.22 0.26 0.27 0.27 0.29 0.25 0.23 0.26 0.35 0.44 0.48 0.57 1.06 1.21 0.99 0.60 0.40 0.32 0.28 0.26 0.25 0.24 0.21 0.20 0.20 0.19 0.16 0.14 0.11 0.12 0.15 0.20 0.22 0.20 0.16 0.12 0.10 0.09 0.08 0.05 0.05 0.07 0.10 0.10 0.10 0.12 0.14 0.15 0.17 0.20 0.24 0.26 0.27 0.29 0.32 0.39 0.41 0.34 0.36 0.39 0.27 0.19
0.23 0.22 0.23 0.26 0.26 0.25 0.28 0.24 0.24 0.29 0.32 0.35 0.54 0.72 0.74 0.70 0.60 0.37 0.30 0.29 0.27 0.26 0.25 0.21 0.20 0.20 0.21 0.20 0.15 0.14 0.20 0.21 0.26 0.34 0.25 0.17 0.15 0.13 0.12 0.09 0.06 0.07 0.09 0.09 0.14 0.16 0.15 0.20 0.17 0.20 0.20 0.24 0.29 0.29 0.32 0.42 0.47 0.32 0.21 0.27 0.28 0.26 0.18
0.22 0.21 0.22 0.23 0.25 0.28 0.31 0.29 0.25 0.26 0.34 0.47 0.58 0.67 0.68 0.61 0.55 0.45 0.39 0.38 0.36 0.32 0.25 0.20 0.19 0.22 0.24 0.21 0.14 0.14 0.22 0.33 0.36 0.34 0.27 0.17 0.14 0.13 0.11 0.08 0.07 0.08 0.11 0.11 0.12 0.13 0.14 0.15 0.15 0.16 0.18 0.18 0.19 0.22 0.22 0.30 0.29 0.25 0.28 0.30 0.26 0.23 0.24
0.17 0.18 0.22 0.25 0.30 0.31 0.30 0.30 0.28 0.31 0.40 0.43 0.39 0.45 0.52 0.36 0.34 0.40 0.43 0.43 0.37 0.40 0.36 0.28 0.26 0.22 0.21 0.27 0.24 0.25 0.33 0.44 0.59 0.40 0.29 0.18 0.15 0.12 0.09 0.07 0.07 0.08 0.10 0.10 0.10 0.10 0.08 0.07 0.09 0.10 0.13 0.16 0.18 0.17 0.16 0.31 0.23 0.23 0.23 0.26 0.26 0.21 0.20
0.20 0.24 0.28 0.27 0.27 0.31 0.32 0.31 0.29 0.24 0.31 0.31 0.25 0.33 0.48 0.34 0.32 0.32 0.34 0.34 0.33 0.30 0.32 0.32 0.27 0.25 0.23 0.24 0.27 0.31 0.33 0.47 0.50 0.43 0.37 0.31 0.19 0.11 0.09 0.09 0.11 0.12 0.12 0.16 0.12 0.12 0.12 0.11 0.13 0.16 0.12 0.17 0.19 0.20 0.17 0.25 0.15 0.24 0.19 0.22 0.27 0.25 0.20
0.27 0.26 0.20 0.18 0.22 0.27 0.27 0.26 0.24 0.28 0.29 0.23 0.24 0.34 0.50 0.41 0.33 0.29 0.36 0.33 0.30 0.27 0.26 0.24 0.25 0.26 0.29 0.30 0.31 0.35 0.50 0.45 0.57 0.51 0.44 0.35 0.25 0.15 0.13 0.13 0.14 0.16 0.21 0.18 0.17 0.16 0.15 0.17 0.17 0.15 0.16 0.14 0.17 0.21 0.36 0.21 0.15 0.12 0.13 0.15 0.17 0.19 0.20
0.26 0.22 0.19 0.19 0.23 0.25 0.24 0.23 0.21 0.30 0.24 0.21 0.26 0.33 0.44 0.40 0.34 0.30 0.30 0.29 0.25 0.21 0.19 0.19 0.21 0.22 0.26 0.32 0.40 0.50 0.51 0.60 0.74 0.68 0.63 0.62 0.48 0.36 0.30 0.27 0.29 0.27 0.23 0.22 0.18 0.17 0.19 0.18 0.17 0.17 0.15 0.13 0.14 0.16 0.15 0.15 0.15 0.14 0.14 0.15 0.14 0.13 0.14
0.26 0.17 0.18 0.21 0.23 0.24 0.22 0.21 0.26 0.26 0.19 0.20 0.24 0.30 0.38 0.39 0.32 0.25 0.23 0.21 0.21 0.21 0.21 0.19 0.18 0.17 0.18 0.22 0.25 0.28 0.40 0.61 0.66 0.65 0.53 0.65 0.63 0.55 0.45 0.41 0.45 0.39 0.28 0.21 0.20 0.18 0.17 0.17 0.13 0.13 0.13 0.12 0.11 0.15 0.17 0.16 0.15 0.14 0.14 0.15 0.13 0.11 0.10
0.18 0.19 0.20 0.21 0.23 0.26 0.25 0.24 0.25 0.20 0.20 0.20 0.22 0.22 0.30 0.30 0.32 0.25 0.21 0.20 0.19 0.20 0.20 0.20 0.21 0.21 0.21 0.21 0.22 0.24 0.24 0.42 0.44 0.35 0.48 0.56 0.57 0.57 0.52 0.52 0.45 0.36 0.28 0.26 0.24 0.19 0.16 0.14 0.14 0.14 0.14 0.14 0.14 0.14 0.17 0.19 0.16 0.15 0.14 0.14 0.12 0.12 0.11
0.20 0.18 0.17 0.19 0.19 0.23 0.26 0.28 0.22 0.17 0.19 0.22 0.21 0.20 0.28 0.33 0.28 0.28 0.22 0.19 0.20 0.18 0.17 0.18 0.18 0.15 0.18 0.22 0.28 0.32 0.39 0.55 0.37 0.28 0.30 0.47 0.57 0.45 0.49 0.51 0.49 0.37 0.30 0.24 0.18 0.15 0.16 0.16 0.15 0.17 0.21 0.16 0.15 0.16 0.16 0.18 0.21 0.19 0.17 0.14 0.12 0.11 0.12
0.21 0.19 0.20 0.20 0.20 0.23 0.23 0.27 0.20 0.18 0.19 0.21 0.22 0.21 0.26 0.33 0.28 0.31 0.22 0.19 0.22 0.22 0.21 0.21 0.20 0.18 0.20 0.22 0.23 0.26 0.34 0.33 0.30 0.38 0.51 0.36 0.25 0.36 0.48 0.63 0.51 0.39 0.34 0.28 0.20 0.16 0.12 0.12 0.20 0.17 0.20 0.22 0.20 0.19 0.16 0.14 0.17 0.22 0.22 0.16 0.15 0.12 0.12
0.28 0.29 0.30 0.29 0.27 0.29 0.24 0.21 0.18 0.18 0.20 0.21 0.24 0.28 0.27 0.26 0.25 0.32 0.33 0.20 0.21 0.20 0.19 0.22 0.22 0.25 0.25 0.30 0.33 0.34 0.37 0.38 0.38 0.30 0.23 0.20 0.20 0.22 0.29 0.41 0.49 0.55 0.54 0.36 0.34 0.35 0.23 0.21 0.21 0.20 0.19 0.17 0.16 0.14 0.13 0.14 0.17 0.18 0.24 0.27 0.22 0.21 0.17
0.50 0.42 0.39 0.28 0.36 0.43 0.32 0.23 0.24 0.24 0.24 0.26 0.27 0.31 0.28 0.29 0.27 0.25 0.25 0.18 0.20 0.23 0.25 0.27 0.28 0.28 0.27 0.25 0.26 0.26 0.26 0.27 0.25 0.24 0.25 0.27 0.28 0.26 0.25 0.27 0.38 0.46 0.44 0.34 0.32 0.35 0.31 0.33 0.29 0.24 0.18 0.18 0.18 0.15 0.12 0.12 0.16 0.18 0.18 0.23 0.31 0.31 0.25
0.62 0.59 0.52 0.36 0.28 0.37 0.44 0.37 0.30 0.24 0.23 0.22 0.26 0.28 0.23 0.23 0.24 0.27 0.22 0.20 0.19 0.18 0.21 0.20 0.19 0.19 0.20 0.20 0.19 0.20 0.20 0.19 0.19 0.21 0.23 0.25 0.27 0.26 0.25 0.25 0.26 0.28 0.28 0.27 0.33 0.27 0.29 0.27 0.25 0.22 0.20 0.19 0.18 0.15 0.12 0.12 0.13 0.18 0.20 0.23 0.30 0.33 0.27
0.35 0.36 0.38 0.38 0.42 0.35 0.23 0.25 0.20 0.19 0.18 0.19 0.25 0.25 0.21 0.20 0.30 0.25 0.19 0.15 0.16 0.15 0.14 0.15 0.15 0.17 0.16 0.15 0.16 0.17 0.17 0.15 0.14 0.15 0.16 0.19 0.21 0.23 0.24 0.25 0.25 0.26 0.26 0.27 0.29 0.30 0.31 0.25 0.22 0.19 0.14 0.13 0.14 0.13 0.14 0.17 0.19 0.17 0.19 0.23 0.24 0.27 0.26
0.29 0.32 0.37 0.29 0.40 0.49 0.29 0.24 0.22 0.19 0.19 0.21 0.26 0.24 0.21 0.24 0.27 0.22 0.18 0.13 0.11 0.11 0.11 0.11 0.12 0.14 0.14 0.13 0.13 0.13 0.13 0.13 0.15 0.17 0.17 0.16 0.15 0.15 0.16 0.18 0.22 0.24 0.24 0.25 0.27 0.27 0.29 0.30 0.29 0.24 0.19 0.14 0.11 0.10 0.11 0.13 0.17 0.23 0.26 0.27 0.24 0.22 0.22
0.25 0.23 0.30 0.30 0.37 0.43 0.38 0.29 0.28 0.25 0.23 0.22 0.26 0.24 0.24 0.25 0.28 0.23 0.16 0.15 0.13 0.11 0.11 0.10 0.10 0.11 0.12 0.12 0.10 0.11 0.11 0.13 0.14 0.13 0.13 0.13 0.13 0.13 0.13 0.14 0.14 0.16 0.21 0.24 0.25 0.25 0.26 0.35 0.27 0.28 0.27 0.23 0.18 0.15 0.13 0.11 0.10 0.10 0.13 0.17 0.22 0.22 0.20
0.22 0.18 0.19 0.19 0.30 0.38 0.34 0.27 0.25 0.25 0.25 0.26 0.27 0.25 0.26 0.28 0.32 0.25 0.16 0.14 0.13 0.11 0.10 0.11 0.10 0.11 0.12 0.11 0.11 0.10 0.11 0.11 0.10 0.09 0.08 0.07 0.07 0.08 0.08 0.09 0.10 0.11 0.14 0.17 0.20 0.21 0.21 0.22 0.24 0.25 0.26 0.27 0.26 0.22 0.18 0.16 0.14 0.10 0.10 0.11 0.12 0.13 0.14
0.19 0.15 0.15 0.21 0.26 0.37 0.32 0.24 0.22 0.26 0.30 0.32 0.30 0.29 0.30 0.30 0.36 0.42 0.28 0.18 0.12 0.11 0.10 0.11 0.10 0.09 0.09 0.08 0.09 0.09 0.09 0.09 0.07 0.06 0.05 0.04 0.03 0.03 0.04 0.05 0.06 0.07 0.08 0.10 0.12 0.14 0.16 0.17 0.20 0.22 0.23 0.22 0.22 0.23 0.23 0.20 0.18 0.17 0.13 0.10 0.08 0.07 0.08
0.24 0.19 0.17 0.20 0.22 0.28 0.34 0.27 0.21 0.24 0.31 0.34 0.33 0.34 0.33 0.28 0.25 0.22 0.22 0.17 0.14 0.11 0.11 0.10 0.09 0.08 0.08 0.08 0.08 0.08 0.07 0.06 0.05 0.04 0.04 0.04 0.03 0.03 0.03 0.03 0.04 0.05 0.05 0.06 0.07 0.09 0.11 0.14 0.16 0.19 0.22 0.23 0.21 0.20 0.20 0.18 0.16 0.14 0.14 0.11 0.09 0.08 0.06